Location: Madden
(51.3728°N, 114.3297°W)
Time: 05:49:07
(UTC+00:00)

PCSat - Pass Details

Date: 08 December 2023
Orbit: 784 x 791 km, 67.0° (Epoch: 02 March)

Event Time Altitude Azimuth Distance (km) Brightness Sun altitude
Exits shadow 12:38:07 39° 350° (N) 1,167 10.3 -25.4°
Drops below altitude 10° 12:42:11 10° 31° (NNE) 2,362 12.3 -24.8°
Sets 12:44:44 0° 38° (NE) 3,296 13.2 -24.4°
